EDT,Max TemperatureF,Mean TemperatureF,Min TemperatureF,Max Dew PointF,MeanDew PointF,Min DewpointF,Max Humidity, Mean Humidity, Min Humidity, Max Sea Level PressureIn, Mean Sea Level PressureIn, Min Sea Level PressureIn, Max VisibilityMiles, Mean VisibilityMiles, Min VisibilityMiles, Max Wind SpeedMPH, Mean Wind SpeedMPH, Max Gust SpeedMPH,PrecipitationIn, CloudCover, Events, WindDirDegrees
2012-10-1,65,50,36,48,42,36,97,71,38,29.95,29.90,29.85,10,8,0,7,1,,0.00,1,Fog,70
2012-10-2,69,58,48,49,45,38,84,62,33,29.93,29.87,29.82,10,10,10,13,5,16,0.00,5,,63
2012-10-3,64,60,55,57,54,48,97,84,66,30.03,29.97,29.91,10,8,2,13,5,17,0.03,8,Rain,164
2012-10-4,77,68,58,58,54,46,96,74,34,30.05,30.02,29.96,10,7,3,20,10,29,0.08,6,Rain,226
2012-10-5,57,50,42,50,40,36,87,66,47,30.06,30.01,29.95,10,10,10,17,11,23,0.00,4,,255
2012-10-6,48,43,38,36,33,29,80,64,50,30.12,30.02,29.92,10,10,10,15,8,20,0.00,7,,281
2012-10-7,47,40,33,37,34,30,91,74,53,30.13,30.10,30.07,10,10,4,12,2,,0.00,7,Rain,284
2012-10-8,55,43,31,32,27,21,93,57,27,30.16,30.11,30.05,10,10,7,17,8,30,0.00,2,,200
2012-10-9,62,52,42,42,33,27,75,48,34,30.04,29.91,29.75,10,10,10,24,13,32,0.00,1,,201
2012-10-10,46,41,35,42,33,24,94,73,45,30.13,29.95,29.82,10,10,5,23,11,31,0.06,8,Rain,273
2012-10-11,61,46,32,42,33,28,92,65,32,30.19,30.08,29.98,10,10,10,31,11,44,0.00,4,Rain,239
2012-10-12,49,40,32,37,29,18,91,64,30,30.45,30.36,30.19,10,10,10,14,4,,0.00,1,Rain,34
2012-10-13,63,46,31,61,40,26,96,87,71,30.34,30.08,29.82,10,7,2,16,8,23,0.46,6,Rain,173
2012-10-14,70,60,50,63,59,48,96,87,57,29.82,29.60,29.40,10,7,3,36,14,43,0.78,7,Rain,214
2012-10-15,50,47,44,47,41,36,89,78,71,29.95,29.79,29.55,10,10,10,21,13,29,0.00,8,Rain,292
2012-10-16,61,46,32,45,37,32,99,70,40,29.96,29.85,29.67,10,10,5,14,5,18,0.00,1,Rain,179
2012-10-17,72,63,54,55,47,40,93,62,31,29.66,29.57,29.47,10,10,7,26,12,36,0.17,4,Rain,185
2012-10-18,58,52,46,55,44,32,92,72,40,29.62,29.45,29.30,10,10,4,25,17,38,0.24,7,Rain,196
2012-10-19,49,46,44,46,42,38,96,86,73,29.61,29.55,29.50,10,10,5,16,8,22,0.30,8,Rain,155
2012-10-20,55,49,42,45,43,39,96,83,54,29.89,29.71,29.56,10,9,4,13,6,21,0.02,6,Rain,272
2012-10-21,61,48,35,46,39,35,98,75,40,30.07,30.02,29.90,10,7,0,12,5,,0.00,1,Fog,219
2012-10-22,69,55,41,59,50,39,97,81,63,30.04,30.00,29.92,10,9,3,13,5,,0.59,4,Rain,161
2012-10-23,64,62,59,61,60,58,98,95,83,29.98,29.93,29.87,10,4,0,12,6,,0.27,8,Fog-Rain,139
2012-10-24,77,66,55,61,58,55,98,80,52,30.00,29.96,29.92,10,6,0,12,4,,0.00,4,Fog,175
2012-10-25,78,68,59,58,55,53,86,63,43,29.93,29.84,29.75,10,10,10,29,13,37,0.00,1,,193
2012-10-26,54,46,38,50,35,30,92,68,49,30.27,30.16,29.86,10,10,7,23,12,31,0.02,4,Rain,318
2012-10-27,50,42,33,33,30,29,87,67,45,30.27,30.22,30.17,10,10,10,12,6,,0.00,1,,360
2012-10-28,48,40,32,31,27,20,84,63,37,30.26,30.22,30.17,10,10,10,22,9,29,0.00,3,,20
2012-10-29,45,40,34,28,22,16,72,50,31,30.19,30.09,29.86,10,10,10,21,11,32,0.00,0,,358
2012-10-30,40,38,36,36,32,18,93,81,42,29.85,29.65,29.59,10,8,2,22,15,33,0.01,8,Rain,350
2012-10-31,41,38,36,38,36,34,95,88,78,29.70,29.64,29.59,10,8,2,16,10,21,0.00,8,Rain,317